Tracking 30685 objects as of 17-Jun-2025
HD Live streaming from Space Station
objects crossing your sky now

NOAA 16 DEB

Track NOAA 16 DEB now!
10-day predictions


NORAD ID: 41301
Int'l Code: 2000-055HD
Perigee: 807.0 km
Apogee: 840.4 km
Inclination: 98.7 °
Period: 101.2 minutes
Semi major axis: 7194 km
RCS: Unknown
Launch date: September 21, 2000
Source: United States (US)
Launch site: AIR FORCE WESTERN TEST RANGE (AFWTR)

Note: This is SATELLITE DEBRIS
Your satellite tracking list
Your tracking list is empty




NASA's NSSDC Master Catalog

Two Line Element Set (TLE):
1 41301U 00055HD  25167.06591610  .00003702  00000-0  16701-2 0  9997
2 41301  98.7185 206.1453 0023218 156.7012 203.5223 14.22614779487591
Source of the keplerian elements: AFSPC